Wind_Speed
18 18 17 18 17 18 17 17 17 16 16 15 16 16 17 18 18 18 18 18 19 20 20 20 20 20 20 20 20 20 21 21 21 21 22 22 23 23 25 26 25 25 24
19 19 19 19 19 18 18 18 17 16 15 16 16 17 17 18 18 19 18 18 19 20 20 20 20 20 20 20 20 20 21 21 21 21 21 21 22 22 23 24 24 24 24
20 20 20 20 20 20 19 18 17 17 17 17 17 17 17 18 18 18 19 19 19 19 19 20 20 20 20 20 20 20 20 21 21 21 21 21 21 22 23 23 23 24 25
21 21 21 21 20 20 19 19 18 18 18 18 18 18 18 18 19 20 20 20 19 19 19 19 19 19 20 20 20 20 20 21 21 21 21 21 21 22 22 23 22 22 23
21 21 21 21 21 20 20 20 19 20 20 19 19 19 19 20 20 20 20 20 19 19 19 19 19 19 20 20 21 21 21 21 21 20 20 21 21 21 22 22 21 20 21
21 21 21 21 21 21 21 20 20 21 21 21 20 21 21 21 21 21 20 19 19 19 19 20 20 21 21 21 21 21 21 21 20 20 20 20 20 20 20 20 19 20 20
21 21 22 22 22 22 21 21 21 22 22 21 22 22 22 22 22 21 20 19 19 19 20 21 21 22 22 22 21 21 21 21 20 20 20 20 19 20 20 20 20 20 19
22 23 23 23 23 23 22 22 22 22 22 22 22 23 23 23 22 22 21 21 21 21 21 21 21 21 21 21 20 20 20 20 21 21 20 20 20 19 20 20 20 20 19
22 22 23 23 23 22 22 22 22 22 22 22 22 22 22 22 22 22 22 22 22 21 21 21 22 21 21 21 21 21 21 22 21 21 21 21 20 19 20 20 20 20 20
23 23 23 23 22 23 23 22 22 22 22 22 22 22 22 22 21 21 21 21 21 21 21 22 21 21 20 21 22 22 22 22 22 22 21 21 20 20 20 20 20 20 20
23 23 23 23 23 23 23 22 22 23 23 23 23 23 22 21 21 21 21 21 21 21 22 21 21 21 21 22 22 23 23 23 22 22 22 21 21 21 20 20 20 20 20
22 22 23 23 24 24 23 23 24 23 24 24 24 23 22 22 22 22 22 22 22 21 21 22 22 22 22 22 22 23 23 23 23 23 22 21 21 21 20 20 20 20 20
22 23 24 25 25 24 24 24 24 24 24 24 24 23 24 24 23 23 22 22 22 22 22 22 22 23 23 23 23 24 25 24 23 22 22 21 21 20 20 20 20 20 19
23 23 23 23 24 24 24 24 24 23 23 22 22 23 24 24 24 24 24 23 23 23 23 23 23 23 24 24 24 24 23 22 22 22 21 21 21 20 20 20 19 19 19
22 22 22 22 22 22 22 23 23 24 24 23 23 24 25 25 24 24 24 24 23 23 24 24 24 24 24 24 23 22 22 21 21 21 21 22 21 20 20 20 20 19 20
21 21 22 22 23 23 24 24 24 24 23 24 24 24 24 24 24 24 24 24 24 24 24 25 24 24 24 22 21 21 21 21 21 21 21 21 21 20 20 20 20 20 20
23 22 23 23 24 24 24 24 24 24 24 25 25 24 24 24 24 24 24 24 23 24 24 24 24 23 23 22 22 22 22 22 21 21 20 20 20 20 19 19 20 20 20
23 23 23 23 24 23 24 24 23 24 24 24 24 24 24 24 24 24 24 23 23 22 23 23 23 23 23 23 23 23 23 22 22 21 21 20 20 19 19 19 19 20 20
23 23 23 23 23 23 23 23 23 23 23 23 23 23 23 23 23 24 24 24 24 23 23 23 23 23 24 24 24 24 23 22 22 22 22 21 20 20 20 19 20 20 19
22 22 23 23 23 24 23 24 24 23 23 23 23 23 23 23 23 23 24 23 23 22 22 22 22 23 23 24 25 24 23 23 23 22 21 21 21 21 20 20 20 20 19
23 23 24 24 24 23 23 23 24 23 23 23 23 23 23 23 24 24 24 23 23 22 22 22 22 22 22 23 24 23 23 23 23 22 22 21 21 21 21 21 20 20 19
24 24 25 25 24 24 23 23 23 23 23 23 22 22 23 23 23 23 23 23 23 23 23 23 23 23 23 23 23 23 23 23 23 22 22 22 21 21 20 20 20 19 19
24 24 24 24 24 24 23 23 23 23 23 22 22 21 22 22 22 22 22 23 22 22 23 23 23 23 22 22 23 23 23 22 22 22 22 22 22 21 21 20 21 21 21
23 23 23 23 23 23 23 23 23 22 22 22 21 21 22 22 23 23 23 22 22 21 21 21 22 23 23 23 23 23 23 22 22 22 22 22 21 21 21 21 21 21 21
24 24 23 23 23 23 24 24 23 22 22 21 22 22 22 22 22 23 23 22 22 22 22 21 21 21 22 24 24 23 23 22 22 22 22 22 22 22 22 22 22 22 22
24 24 24 24 23 24 24 24 23 23 22 22 22 21 21 21 21 21 21 21 22 22 22 21 21 21 21 22 23 23 23 22 22 22 22 22 22 23 23 23 22 22 22
Wind_Direction
269 269 270 273 276 275 274 276 280 282 284 282 285 283 281 280 280 281 279 274 270 269 267 264 264 265 268 267 269 269 271 272 273 273 275 275 275 276 273 271 271 270 268
268 268 269 271 274 275 274 277 278 280 284 285 286 284 283 283 282 281 281 280 275 271 266 265 266 265 267 268 270 272 272 272 274 275 276 277 277 277 276 274 271 270 268
266 267 267 270 271 271 272 274 275 277 281 284 287 285 284 284 284 284 281 281 276 270 267 266 267 266 265 268 269 272 273 274 275 275 276 277 277 278 277 278 277 271 270
267 269 269 270 270 272 270 271 274 276 279 282 286 286 285 284 284 284 283 280 276 270 268 268 267 267 267 268 269 271 273 275 276 276 274 275 276 278 280 280 281 276 272
268 268 268 269 271 271 270 271 274 277 279 280 283 285 285 284 285 283 282 277 274 270 268 268 268 269 270 269 270 272 273 275 275 275 276 276 277 279 280 281 279 277 277
267 268 268 269 271 271 270 271 274 277 278 279 280 283 285 285 285 283 283 278 274 270 268 269 268 268 270 271 272 273 273 274 273 273 275 278 279 282 281 280 280 279 279
264 264 268 269 269 268 268 270 272 275 276 278 279 281 283 285 284 281 280 276 275 273 272 271 269 268 271 271 269 271 272 271 270 271 274 279 281 282 280 280 282 282 280
264 265 268 269 268 267 268 270 271 273 275 277 278 279 280 280 280 278 273 274 274 273 272 271 269 268 269 270 269 269 269 268 269 271 274 277 278 277 278 280 282 283 281
266 268 268 267 266 268 269 272 273 274 275 277 278 279 279 280 280 277 275 273 273 272 271 269 268 268 268 269 269 269 269 269 269 271 271 273 272 273 276 280 281 282 281
265 267 266 266 267 268 270 273 275 275 276 277 278 278 279 280 280 279 277 275 274 273 271 268 266 268 267 266 266 267 269 269 270 271 270 269 268 270 273 276 279 281 281
264 266 267 266 267 269 271 274 276 278 277 277 279 278 278 278 277 277 276 275 277 277 275 269 266 265 266 267 265 265 267 267 270 272 269 267 267 269 270 273 276 279 280
263 263 264 265 265 267 271 273 275 277 277 278 278 277 276 277 275 274 275 276 277 276 275 272 268 267 266 266 265 265 266 267 269 271 267 265 266 267 268 271 274 277 279
264 265 265 267 267 268 270 273 275 278 279 279 277 276 276 275 274 273 274 275 277 276 275 274 270 268 268 267 267 266 267 267 268 269 266 265 265 266 267 268 270 274 276
265 266 268 269 270 271 271 272 273 277 279 280 277 275 275 274 274 274 275 276 277 277 276 273 270 269 267 267 266 265 266 267 267 268 265 264 265 266 266 267 269 272 274
267 267 270 271 272 273 272 274 274 274 278 280 279 277 276 273 272 273 275 276 275 276 274 271 271 270 268 267 265 265 266 267 267 266 265 264 265 265 265 266 268 272 275
266 268 270 271 273 274 273 273 275 276 277 277 277 278 276 274 273 274 274 274 275 275 274 272 271 271 268 266 266 266 265 267 267 266 265 265 265 264 266 267 268 270 274
265 266 268 269 272 273 273 275 277 278 277 276 276 275 274 275 275 275 274 274 276 275 274 272 270 269 268 265 265 265 266 266 267 265 264 264 265 265 267 268 269 272 274
267 269 269 270 272 272 273 275 278 281 281 278 277 274 274 275 276 275 275 276 275 273 273 271 269 266 265 265 265 265 265 266 265 264 263 263 264 265 267 267 268 270 273
269 270 271 272 274 276 277 279 280 282 282 278 276 275 275 276 275 275 276 277 275 272 270 269 269 267 265 263 264 264 265 265 264 263 262 262 262 264 266 266 266 267 269
272 273 274 275 276 277 277 277 278 279 279 278 276 275 276 275 273 274 276 277 275 273 270 267 266 266 265 264 263 262 263 264 262 261 261 260 259 261 264 265 264 265 267
274 275 276 277 277 277 278 278 277 278 279 279 277 275 274 274 272 271 272 273 273 272 271 269 267 266 264 263 261 260 261 263 261 258 258 259 259 260 262 264 264 264 265
276 277 278 278 277 276 277 278 279 280 282 280 278 276 275 275 273 271 271 272 272 270 268 267 266 266 265 262 259 259 260 262 261 257 256 258 260 260 260 262 261 262 264
276 277 277 277 276 276 277 280 281 282 282 281 278 276 273 272 273 273 273 274 273 270 269 268 266 264 264 263 262 260 259 260 259 257 255 258 259 258 257 259 260 261 264
276 276 277 276 275 275 276 279 280 281 280 279 279 278 276 274 272 273 275 276 275 273 272 272 269 267 264 263 262 261 260 260 259 256 254 255 255 256 257 258 260 261 264
276 277 277 276 275 274 275 277 278 277 277 277 277 278 278 275 275 275 275 275 276 275 273 273 273 271 268 265 264 263 261 261 259 257 255 254 254 254 257 258 260 262 263
276 277 277 276 275 275 275 276 275 274 274 275 277 277 277 277 276 277 276 275 275 274 274 273 272 272 272 268 264 263 260 259 259 257 256 255 255 256 258 258 259 262 264
Height
5814 5813 5813 5812 5811 5810 5809 5809 5808 5807 5806 5804 5803 5802 5801 5799 5798 5796 5795 5795 5794 5794 5794 5794 5794 5794 5794 5795 5795 5795 5795 5795 5795 5795 5794 5793 5793 5792 5792 5792 5792 5792 5792
5808 5808 5808 5807 5806 5805 5805 5804 5803 5803 5801 5800 5799 5798 5796 5794 5793 5791 5790 5789 5789 5788 5788 5788 5788 5789 5789 5789 5789 5789 5789 5789 5789 5789 5788 5787 5787 5786 5785 5785 5784 5784 5784
5802 5802 5802 5802 5801 5801 5800 5799 5799 5798 5797 5796 5794 5793 5791 5789 5788 5786 5785 5784 5783 5783 5782 5783 5783 5783 5783 5783 5783 5783 5783 5783 5783 5783 5782 5781 5781 5780 5779 5778 5777 5777 5776
5796 5796 5796 5796 5796 5795 5795 5794 5794 5793 5792 5791 5789 5788 5786 5784 5782 5780 5779 5778 5777 5777 5777 5777 5777 5777 5778 5778 5778 5778 5778 5777 5777 5777 5776 5775 5775 5774 5773 5772 5771 5770 5769
5790 5790 5790 5790 5790 5790 5790 5789 5789 5788 5787 5785 5784 5782 5780 5778 5777 5775 5773 5772 5772 5771 5771 5771 5771 5771 5772 5772 5772 5772 5772 5771 5771 5770 5770 5769 5769 5768 5767 5766 5765 5764 5762
5784 5784 5784 5784 5784 5784 5784 5783 5783 5782 5781 5780 5778 5777 5775 5772 5770 5769 5767 5766 5766 5766 5766 5765 5765 5765 5766 5766 5766 5766 5766 5765 5765 5765 5764 5764 5763 5762 5761 5760 5759 5758 5757
5778 5778 5778 5778 5778 5778 5777 5777 5777 5776 5775 5774 5772 5770 5769 5767 5765 5763 5762 5761 5761 5760 5760 5759 5759 5759 5759 5759 5759 5759 5759 5759 5759 5759 5759 5758 5757 5756 5755 5754 5753 5752 5751
5771 5772 5772 5772 5771 5771 5771 5771 5770 5769 5768 5767 5766 5764 5762 5760 5759 5757 5756 5755 5755 5754 5754 5753 5753 5753 5753 5753 5753 5753 5753 5753 5753 5753 5753 5752 5751 5751 5750 5749 5747 5746 5745
5765 5765 5765 5765 5764 5765 5764 5764 5763 5763 5762 5761 5759 5758 5756 5754 5753 5751 5750 5749 5748 5748 5747 5747 5747 5747 5747 5747 5747 5747 5747 5747 5746 5746 5746 5746 5745 5745 5744 5743 5742 5741 5740
5758 5758 5758 5758 5758 5758 5758 5757 5756 5756 5755 5754 5753 5752 5750 5748 5747 5746 5744 5743 5742 5741 5741 5740 5740 5740 5741 5740 5740 5741 5741 5741 5740 5739 5739 5739 5739 5738 5738 5737 5736 5735 5734
5752 5752 5751 5751 5751 5751 5751 5750 5750 5749 5748 5747 5746 5745 5743 5742 5741 5740 5739 5737 5736 5735 5734 5734 5734 5734 5734 5734 5734 5734 5734 5734 5733 5733 5732 5732 5732 5732 5731 5731 5730 5729 5728
5745 5745 5745 5745 5744 5744 5744 5743 5743 5742 5741 5740 5739 5738 5737 5736 5735 5734 5733 5732 5730 5729 5728 5728 5728 5727 5727 5728 5728 5728 5727 5727 5726 5726 5725 5725 5725 5725 5725 5724 5724 5723 5722
5738 5738 5738 5738 5738 5737 5737 5736 5736 5735 5734 5733 5732 5731 5730 5729 5728 5727 5726 5725 5723 5723 5722 5722 5721 5721 5721 5721 5721 5721 5721 5720 5720 5719 5718 5718 5718 5718 5718 5718 5717 5717 5716
5732 5732 5732 5731 5731 5730 5730 5729 5729 5728 5727 5726 5725 5724 5723 5722 5721 5720 5719 5718 5717 5716 5715 5715 5714 5714 5714 5714 5714 5713 5713 5713 5713 5712 5712 5711 5711 5711 5711 5711 5711 5711 5710
5726 5725 5725 5725 5724 5724 5723 5722 5722 5721 5720 5719 5717 5716 5715 5715 5714 5713 5712 5711 5710 5710 5708 5707 5707 5707 5707 5707 5706 5706 5706 5706 5706 5705 5705 5705 5705 5705 5705 5705 5705 5705 5705
5720 5719 5719 5718 5718 5717 5716 5715 5714 5713 5712 5711 5710 5709 5708 5707 5706 5705 5704 5703 5703 5702 5701 5700 5700 5700 5700 5699 5699 5699 5699 5699 5699 5699 5698 5698 5698 5698 5699 5699 5699 5699 5698
5713 5713 5712 5712 5711 5710 5709 5708 5707 5706 5704 5703 5702 5701 5700 5699 5699 5698 5697 5696 5695 5694 5693 5692 5692 5692 5692 5692 5692 5693 5692 5692 5692 5692 5692 5692 5692 5692 5693 5693 5693 5693 5692
5706 5706 5705 5704 5704 5703 5702 5700 5699 5698 5697 5695 5694 5693 5692 5692 5691 5690 5689 5688 5687 5686 5685 5684 5684 5684 5685 5685 5685 5685 5685 5685 5685 5685 5685 5686 5686 5686 5686 5687 5687 5687 5686
5699 5698 5698 5697 5696 5695 5694 5693 5692 5690 5689 5688 5686 5685 5684 5683 5683 5682 5681 5680 5679 5678 5677 5677 5677 5676 5677 5677 5677 5678 5678 5678 5678 5678 5679 5679 5680 5680 5680 5680 5681 5681 5680
5691 5691 5690 5690 5689 5688 5686 5685 5684 5683 5681 5680 5679 5677 5676 5676 5675 5674 5673 5672 5671 5670 5670 5669 5669 5669 5669 5669 5670 5670 5671 5671 5671 5671 5672 5673 5673 5674 5674 5674 5674 5675 5674
5684 5683 5683 5682 5681 5680 5678 5677 5676 5675 5673 5672 5671 5669 5668 5667 5667 5666 5665 5664 5664 5663 5662 5661 5661 5661 5661 5662 5662 5663 5663 5664 5664 5664 5665 5666 5667 5668 5668 5668 5668 5669 5669
5676 5676 5675 5674 5673 5672 5671 5670 5668 5666 5665 5664 5662 5661 5660 5659 5658 5658 5657 5656 5656 5655 5654 5654 5654 5654 5654 5654 5655 5655 5656 5656 5657 5657 5658 5659 5660 5661 5661 5662 5662 5663 5663
5669 5668 5667 5666 5665 5664 5663 5662 5660 5659 5657 5656 5655 5653 5652 5652 5651 5650 5649 5649 5648 5647 5647 5646 5646 5646 5646 5646 5647 5648 5648 5649 5649 5650 5651 5652 5653 5654 5655 5656 5656 5657 5657
5661 5660 5659 5658 5657 5656 5655 5654 5653 5651 5650 5649 5647 5646 5645 5644 5644 5643 5642 5641 5640 5640 5639 5639 5639 5639 5639 5639 5640 5640 5641 5641 5642 5643 5644 5645 5646 5647 5648 5649 5650 5651 5651
5653 5652 5651 5650 5649 5648 5647 5646 5645 5644 5643 5642 5640 5639 5638 5637 5637 5636 5634 5634 5633 5632 5632 5632 5631 5631 5631 5631 5632 5632 5633 5634 5635 5636 5637 5638 5639 5641 5642 5643 5643 5644 5644
5644 5643 5643 5642 5641 5640 5639 5638 5638 5637 5636 5635 5634 5633 5631 5630 5630 5629 5628 5627 5626 5626 5625 5625 5624 5624 5623 5624 5624 5625 5626 5627 5627 5628 5629 5631 5632 5634 5634 5635 5636 5637 5637